Weather in Rekonstruktor

Russia / Rostov Oblast     47°18′15″N   39°56′35″E
temp.,
°C
wind,
m/s
gust,
m/s
humid.,
%
clouds,
%
prec.,
mm/h
press.,
hPa
HPBL,
m
2 march, tue
tue200:00+1e239362 0.0 102871
03:000e118948 0.0 102831
06:00−1wsw239415 0.0 102783
09:00+1wsw468442 0.0 1027430
12:00+4wsw696459 0.0 10251143
15:00+4wsw9125969 0.0 10231101
18:00+3wsw7136768 0.0 1020819
21:00+2wsw8157584 0.0 1019809
3 march, wed
wed300:00+2wsw91578100 0.3 1017811
03:00+1w91496100 0.7 1015732
06:00+1w71197100 0.8 1014622
09:00+2nw51093100 1.1 1017634
12:00+3nnw6969100 0.1 10191255
15:00+4nw6964100 0.2 10201346
18:00+2wnw5106766 0.1 1022506
21:000nw377149 0.1 1024200
4 march, thu
thu400:000w34720 0.0 102596
03:000wsw47750 0.0 1025201
06:00−1wsw49760 0.0 1024285
09:00+2wsw712670 0.0 1024721
12:00+6wsw811540 0.0 10221219
15:00+7wsw812550 0.0 10201324
18:00+4wsw613640 0.0 1018646
21:00+4sw716780 0.0 1018672
5 march, fri
fri500:00+3sw8168391 0.0 1017625
03:00+3sw8178580 0.0 1016678
06:00+2sw8178872 0.0 1016694
09:00+4sw9168178 0.0 1016837
12:00+8wsw9136672 0.0 10151077
15:00+10wsw8125675 0.0 10141151
18:00+8wsw6136059 0.0 1013610
21:00+6sw5137367 0.0 1013551
6 march, sat
sat600:00+5sw61677100 0.0 1012745
03:00+5sw71778100 0.0 1012760
06:00+5wsw61385100 0.0 1012560
09:00+4wsw4893100 0.1 1013337
12:00+2n4694100 1.1 1014341
15:00+4n4675100 1.6 1015779
18:00+3n4764100 0.1 1016557
21:00+1n4859100 0.1 1018476